sat.trackr.live / text

‹ back to catalog

SKYNET 5D

NORAD 39034 · 2012-075A

PAYLOAD ACTIVE UNKNOWN

§ Identity

Operator
Country
UK
Launch date
2012-12-19
Launch site
FRGUI
Launch vehicle
Mass (kg)
RCS (m²)
5.67

Purposes: comms

External: N2YO · Heavens-Above · Gunter

§ Orbital elements

Epoch: 2026-09-14T19:11:12.857568Z

Period
1,436.07 min
Inclination
0.0770°
Eccentricity
0.0003748
Mean motion
1.00273796 rev/d
Perigee alt
35,770.2 km
Apogee alt
35,801.8 km
Semi-major
42,164.2 km
B*
0.0000e+0
RAAN
7.5521°
Arg perigee
175.4390°
Mean anomaly
151.3199°
Rev number
5,005

§ Raw data

SKYNET 5D1 39034U 12075A   26257.79945437  .00000092  00000+0  00000+0 0  99932 39034   0.0770   7.5521 0003748 175.4390 151.3199  1.00273796 50050

JSON: /api/v1/satellites/39034 · /tle

For live sub-satellite position, see the globe view (requires WebGL).

§ Visibility from observer

Set your observer location to see the next 7 days of passes ≥ 10°. The values pass through the URL so the page stays shareable.

No JS? Fill the form by hand. The geolocation button needs JavaScript.